Time,TemperatureF,DewpointF,PressureIn,WindDirection,WindDirectionDegrees,WindSpeedMPH,WindSpeedGustMPH,Humidity,HourlyPrecipIn,Conditions,Clouds,dailyrainin,SoftwareType,DateUTC
2013-06-24 00:01:00,78.9,25.7,29.63,SW,215,1.0,4.0,14,0.00,,,0.00,VWS V14.01,2013-06-24 07:01:00,
2013-06-24 00:07:00,79.4,26.1,29.64,SW,234,0.0,5.0,14,0.00,,,0.00,VWS V14.01,2013-06-24 07:07:00,
2013-06-24 00:17:00,78.8,25.6,29.64,SSW,212,3.0,7.0,14,0.00,,,0.00,VWS V14.01,2013-06-24 07:17:00,
2013-06-24 00:22:00,78.7,25.5,29.64,SSW,213,6.0,6.0,14,0.00,,,0.00,VWS V14.01,2013-06-24 07:22:00,
2013-06-24 00:27:00,78.9,25.7,29.64,SSW,195,6.0,8.0,14,0.00,,,0.00,VWS V14.01,2013-06-24 07:27:00,
2013-06-24 00:32:00,79.3,24.2,29.64,SW,217,7.0,7.0,13,0.00,,,0.00,VWS V14.01,2013-06-24 07:32:00,
2013-06-24 00:37:00,79.2,24.2,29.64,SSW,199,2.0,6.0,13,0.00,,,0.00,VWS V14.01,2013-06-24 07:37:00,
2013-06-24 00:42:00,79.3,24.2,29.64,South,171,6.0,8.0,13,0.00,,,0.00,VWS V14.01,2013-06-24 07:42:00,
2013-06-24 00:47:00,79.7,24.5,29.64,SSW,212,6.0,10.0,13,0.00,,,0.00,VWS V14.01,2013-06-24 07:47:00,
2013-06-24 00:52:00,79.6,24.5,29.64,SSW,213,4.0,7.0,13,0.00,,,0.00,VWS V14.01,2013-06-24 07:52:00,
2013-06-24 01:01:00,79.0,24.0,29.64,SW,234,3.0,6.0,13,0.00,,,0.00,VWS V14.01,2013-06-24 08:01:00,
2013-06-24 01:07:00,79.0,24.0,29.64,SSW,197,7.0,10.0,13,0.00,,,0.00,VWS V14.01,2013-06-24 08:07:00,
2013-06-24 01:13:00,80.1,24.9,29.64,SSW,200,7.0,9.0,13,0.00,,,0.00,VWS V14.01,2013-06-24 08:13:00,
2013-06-24 01:18:00,80.4,23.2,29.64,SW,222,6.0,10.0,12,0.00,,,0.00,VWS V14.01,2013-06-24 08:18:00,
2013-06-24 01:23:00,80.4,23.2,29.64,SSW,211,2.0,6.0,12,0.00,,,0.00,VWS V14.01,2013-06-24 08:23:00,
2013-06-24 01:33:00,79.5,22.5,29.64,WSW,239,4.0,10.0,12,0.00,,,0.00,VWS V14.01,2013-06-24 08:33:00,
2013-06-24 01:38:00,79.9,22.8,29.64,SW,215,5.0,7.0,12,0.00,,,0.00,VWS V14.01,2013-06-24 08:38:00,
2013-06-24 01:51:00,79.6,22.6,29.65,SW,214,8.0,11.0,12,0.00,,,0.00,VWS V14.01,2013-06-24 08:51:00,
2013-06-24 01:56:00,79.1,24.1,29.65,SW,218,5.0,9.0,13,0.00,,,0.00,VWS V14.01,2013-06-24 08:56:00,
2013-06-24 02:01:00,77.7,23.0,29.65,SSW,213,3.0,6.0,13,0.00,,,0.00,VWS V14.01,2013-06-24 09:01:00,
2013-06-24 02:08:00,77.1,24.3,29.65,WSW,242,4.0,6.0,14,0.00,,,0.00,VWS V14.01,2013-06-24 09:08:00,
2013-06-24 02:16:00,76.6,22.1,29.65,SSW,210,4.0,7.0,13,0.00,,,0.00,VWS V14.01,2013-06-24 09:16:00,
2013-06-24 02:23:00,76.4,22.0,29.65,SW,225,1.0,6.0,13,0.00,,,0.00,VWS V14.01,2013-06-24 09:23:00,
2013-06-24 02:28:00,76.1,23.5,29.65,SW,232,2.0,5.0,14,0.00,,,0.00,VWS V14.01,2013-06-24 09:28:00,
2013-06-24 02:33:00,76.1,21.7,29.65,SW,221,4.0,4.0,13,0.00,,,0.00,VWS V14.01,2013-06-24 09:33:00,
2013-06-24 02:41:00,75.9,21.6,29.65,West,269,0.0,5.0,13,0.00,,,0.00,VWS V14.01,2013-06-24 09:41:00,
2013-06-24 02:54:00,75.9,21.6,29.65,SSW,213,4.0,6.0,13,0.00,,,0.00,VWS V14.01,2013-06-24 09:54:00,
2013-06-24 03:01:00,76.2,21.8,29.65,SW,236,3.0,5.0,13,0.00,,,0.00,VWS V14.01,2013-06-24 10:01:00,
2013-06-24 03:06:00,76.0,21.6,29.65,SW,223,4.0,5.0,13,0.00,,,0.00,VWS V14.01,2013-06-24 10:06:00,
2013-06-24 03:11:00,75.7,21.4,29.65,SW,227,2.0,5.0,13,0.00,,,0.00,VWS V14.01,2013-06-24 10:11:00,
2013-06-24 03:16:00,75.3,22.9,29.65,WSW,246,1.0,4.0,14,0.00,,,0.00,VWS V14.01,2013-06-24 10:16:00,
2013-06-24 03:21:00,75.1,22.7,29.65,SW,218,2.0,5.0,14,0.00,,,0.00,VWS V14.01,2013-06-24 10:21:00,
2013-06-24 03:29:00,74.8,22.5,29.65,SW,225,3.0,5.0,14,0.00,,,0.00,VWS V14.01,2013-06-24 10:29:00,
2013-06-24 03:34:00,74.7,22.4,29.65,SW,219,2.0,4.0,14,0.00,,,0.00,VWS V14.01,2013-06-24 10:34:00,
2013-06-24 03:39:00,74.8,22.5,29.65,SW,219,0.0,3.0,14,0.00,,,0.00,VWS V14.01,2013-06-24 10:39:00,
2013-06-24 03:44:00,74.9,22.5,29.65,SW,221,3.0,5.0,14,0.00,,,0.00,VWS V14.01,2013-06-24 10:44:00,
2013-06-24 03:49:00,75.1,20.9,29.65,SW,223,3.0,5.0,13,0.00,,,0.00,VWS V14.01,2013-06-24 10:49:00,
2013-06-24 03:54:00,75.2,21.0,29.65,SW,217,2.0,5.0,13,0.00,,,0.00,VWS V14.01,2013-06-24 10:54:00,
2013-06-24 03:59:00,75.2,19.1,29.65,SW,221,2.0,5.0,12,0.00,,,0.00,VWS V14.01,2013-06-24 10:59:00,
2013-06-24 04:04:00,75.1,19.1,29.65,SW,216,6.0,6.0,12,0.00,,,0.00,VWS V14.01,2013-06-24 11:04:00,
2013-06-24 04:11:00,74.8,18.8,29.66,SW,225,1.0,6.0,12,0.00,,,0.00,VWS V14.01,2013-06-24 11:11:00,
2013-06-24 04:19:00,75.0,19.0,29.66,SSW,207,4.0,5.0,12,0.00,,,0.00,VWS V14.01,2013-06-24 11:19:00,
2013-06-24 04:24:00,75.1,19.1,29.66,SW,231,0.0,3.0,12,0.00,,,0.00,VWS V14.01,2013-06-24 11:24:00,
2013-06-24 04:29:00,74.6,18.7,29.66,West,264,1.0,3.0,12,0.00,,,0.00,VWS V14.01,2013-06-24 11:29:00,
2013-06-24 04:34:00,74.5,18.6,29.66,West,264,0.0,3.0,12,0.00,,,0.00,VWS V14.01,2013-06-24 11:34:00,
2013-06-24 04:44:00,73.8,19.9,29.67,WSW,255,3.0,3.0,13,0.00,,,0.00,VWS V14.01,2013-06-24 11:44:00,
2013-06-24 04:49:00,73.9,20.0,29.66,West,276,0.0,3.0,13,0.00,,,0.00,VWS V14.01,2013-06-24 11:49:00,
2013-06-24 04:54:00,74.4,20.4,29.66,SW,227,3.0,4.0,13,0.00,,,0.00,VWS V14.01,2013-06-24 11:54:00,
2013-06-24 04:59:00,74.9,20.8,29.67,SW,228,1.0,7.0,13,0.00,,,0.00,VWS V14.01,2013-06-24 11:59:00,
2013-06-24 05:04:00,74.9,20.8,29.67,SW,216,2.0,7.0,13,0.00,,,0.00,VWS V14.01,2013-06-24 12:04:00,
2013-06-24 05:09:00,74.4,20.4,29.67,SSE,151,1.0,7.0,13,0.00,,,0.00,VWS V14.01,2013-06-24 12:09:00,
2013-06-24 05:14:00,72.2,20.4,29.67,SSE,150,0.0,4.0,14,0.00,,,0.00,VWS V14.01,2013-06-24 12:14:00,
2013-06-24 05:19:00,70.5,20.7,29.67,SSE,150,0.0,2.0,15,0.00,,,0.00,VWS V14.01,2013-06-24 12:19:00,
2013-06-24 05:30:00,68.6,20.6,29.68,SSE,150,1.0,1.0,16,0.00,,,0.00,VWS V14.01,2013-06-24 12:30:00,
2013-06-24 05:35:00,68.5,20.6,29.68,SSE,150,0.0,4.0,16,0.00,,,0.00,VWS V14.01,2013-06-24 12:35:00,
2013-06-24 05:40:00,68.5,20.6,29.68,SSE,150,0.0,2.0,16,0.00,,,0.00,VWS V14.01,2013-06-24 12:40:00,
2013-06-24 05:45:00,68.3,21.8,29.68,SSE,150,0.0,0.0,17,0.00,,,0.00,VWS V14.01,2013-06-24 12:45:00,
2013-06-24 05:50:00,68.3,20.4,29.68,SSE,150,1.0,2.0,16,0.00,,,0.00,VWS V14.01,2013-06-24 12:50:00,
2013-06-24 05:55:00,68.7,20.7,29.68,SSE,150,0.0,4.0,16,0.00,,,0.00,VWS V14.01,2013-06-24 12:55:00,
2013-06-24 06:01:00,68.5,20.6,29.69,SSE,150,0.0,2.0,16,0.00,,,0.00,VWS V14.01,2013-06-24 13:01:00,
2013-06-24 06:10:00,68.6,20.6,29.68,SSE,154,0.0,2.0,16,0.00,,,0.00,VWS V14.01,2013-06-24 13:10:00,
2013-06-24 06:15:00,69.6,22.9,29.69,SSE,154,2.0,4.0,17,0.00,,,0.00,VWS V14.01,2013-06-24 13:15:00,
2013-06-24 06:20:00,71.4,25.7,29.69,SSE,155,1.0,2.0,18,0.00,,,0.00,VWS V14.01,2013-06-24 13:20:00,
2013-06-24 06:25:00,73.0,28.3,29.69,SE,141,1.0,1.0,19,0.00,,,0.00,VWS V14.01,2013-06-24 13:25:00,
2013-06-24 06:30:00,74.2,30.6,29.69,SE,141,0.0,1.0,20,0.00,,,0.00,VWS V14.01,2013-06-24 13:30:00,
2013-06-24 06:35:00,75.6,33.0,29.69,SE,141,0.0,1.0,21,0.00,,,0.00,VWS V14.01,2013-06-24 13:35:00,
2013-06-24 06:40:00,76.3,37.9,29.69,SSE,167,2.0,9.0,25,0.00,,,0.00,VWS V14.01,2013-06-24 13:40:00,
2013-06-24 06:45:00,77.8,39.2,29.69,SSW,194,1.0,9.0,25,0.00,,,0.00,VWS V14.01,2013-06-24 13:45:00,
2013-06-24 06:51:00,78.8,39.0,29.69,SSW,199,3.0,11.0,24,0.00,,,0.00,VWS V14.01,2013-06-24 13:51:00,
2013-06-24 06:56:00,79.3,39.4,29.69,South,180,3.0,11.0,24,0.00,,,0.00,VWS V14.01,2013-06-24 13:56:00,
2013-06-24 07:01:00,80.0,38.9,29.69,SSW,213,8.0,10.0,23,0.00,,,0.00,VWS V14.01,2013-06-24 14:01:00,
2013-06-24 07:06:00,80.3,39.2,29.70,SSW,211,9.0,11.0,23,0.00,,,0.00,VWS V14.01,2013-06-24 14:06:00,
2013-06-24 07:11:00,80.9,39.7,29.70,SSW,197,7.0,11.0,23,0.00,,,0.00,VWS V14.01,2013-06-24 14:11:00,
2013-06-24 07:16:00,81.4,38.9,29.70,SSW,202,5.0,15.0,22,0.00,,,0.00,VWS V14.01,2013-06-24 14:16:00,
2013-06-24 07:25:00,81.9,39.4,29.70,SSW,213,8.0,16.0,22,0.00,,,0.00,VWS V14.01,2013-06-24 14:25:00,
2013-06-24 07:30:00,82.1,38.3,29.70,South,189,7.0,14.0,21,0.00,,,0.00,VWS V14.01,2013-06-24 14:30:00,
2013-06-24 07:36:00,82.4,38.6,29.70,SW,223,5.0,11.0,21,0.00,,,0.00,VWS V14.01,2013-06-24 14:36:00,
2013-06-24 07:41:00,82.7,38.8,29.71,SSW,205,4.0,13.0,21,0.00,,,0.00,VWS V14.01,2013-06-24 14:41:00,
2013-06-24 07:46:00,83.0,39.1,29.71,SSW,209,6.0,11.0,21,0.00,,,0.00,VWS V14.01,2013-06-24 14:46:00,
2013-06-24 07:51:00,83.3,38.1,29.71,South,189,6.0,13.0,20,0.00,,,0.00,VWS V14.01,2013-06-24 14:51:00,
2013-06-24 07:56:00,84.0,38.7,29.71,SSW,205,4.0,13.0,20,0.00,,,0.00,VWS V14.01,2013-06-24 14:56:00,
2013-06-24 08:06:00,84.3,37.6,29.71,SSW,209,13.0,15.0,19,0.00,,,0.00,VWS V14.01,2013-06-24 15:06:00,
2013-06-24 08:11:00,84.6,37.8,29.72,SSW,200,4.0,15.0,19,0.00,,,0.00,VWS V14.01,2013-06-24 15:11:00,
2013-06-24 08:16:00,84.8,36.6,29.71,SSE,153,6.0,15.0,18,0.00,,,0.00,VWS V14.01,2013-06-24 15:16:00,
2013-06-24 08:21:00,85.1,36.9,29.71,SSW,196,7.0,15.0,18,0.00,,,0.00,VWS V14.01,2013-06-24 15:21:00,
2013-06-24 08:26:00,85.8,37.4,29.72,SSW,213,9.0,11.0,18,0.00,,,0.00,VWS V14.01,2013-06-24 15:26:00,
2013-06-24 08:31:00,85.8,36.0,29.72,South,180,7.0,16.0,17,0.00,,,0.00,VWS V14.01,2013-06-24 15:31:00,
2013-06-24 08:36:00,86.4,35.0,29.72,SW,219,12.0,16.0,16,0.00,,,0.00,VWS V14.01,2013-06-24 15:36:00,
2013-06-24 08:41:00,86.3,34.9,29.72,SSE,165,9.0,18.0,16,0.00,,,0.00,VWS V14.01,2013-06-24 15:41:00,
2013-06-24 08:46:00,86.6,35.1,29.72,SW,219,9.0,16.0,16,0.00,,,0.00,VWS V14.01,2013-06-24 15:46:00,
2013-06-24 08:51:00,86.3,34.9,29.71,SSW,192,8.0,14.0,16,0.00,,,0.00,VWS V14.01,2013-06-24 15:51:00,
2013-06-24 08:56:00,87.1,33.9,29.71,SW,217,7.0,14.0,15,0.00,,,0.00,VWS V14.01,2013-06-24 15:56:00,
2013-06-24 09:01:00,86.9,32.0,29.71,SSW,198,13.0,16.0,14,0.00,,,0.00,VWS V14.01,2013-06-24 16:01:00,
2013-06-24 09:06:00,87.3,32.3,29.72,SSW,196,3.0,16.0,14,0.00,,,0.00,VWS V14.01,2013-06-24 16:06:00,
2013-06-24 09:11:00,87.8,30.9,29.72,SSW,205,12.0,17.0,13,0.00,,,0.00,VWS V14.01,2013-06-24 16:11:00,
2013-06-24 09:16:00,87.9,31.0,29.71,South,178,7.0,14.0,13,0.00,,,0.00,VWS V14.01,2013-06-24 16:16:00,
2013-06-24 09:21:00,88.1,31.1,29.72,SSE,167,5.0,13.0,13,0.00,,,0.00,VWS V14.01,2013-06-24 16:21:00,
2013-06-24 09:26:00,88.0,31.0,29.72,SSW,199,10.0,19.0,13,0.00,,,0.00,VWS V14.01,2013-06-24 16:26:00,
2013-06-24 09:31:00,88.6,31.5,29.72,SSW,192,5.0,18.0,13,0.00,,,0.00,VWS V14.01,2013-06-24 16:31:00,
2013-06-24 09:36:00,88.3,31.3,29.71,SW,215,5.0,15.0,13,0.00,,,0.00,VWS V14.01,2013-06-24 16:36:00,
2013-06-24 09:41:00,88.8,31.7,29.72,South,169,4.0,14.0,13,0.00,,,0.00,VWS V14.01,2013-06-24 16:41:00,
2013-06-24 09:46:00,88.9,31.8,29.71,SSW,196,8.0,13.0,13,0.00,,,0.00,VWS V14.01,2013-06-24 16:46:00,
2013-06-24 09:51:00,89.2,32.0,29.71,South,189,12.0,14.0,13,0.00,,,0.00,VWS V14.01,2013-06-24 16:51:00,
2013-06-24 09:56:00,89.9,30.5,29.71,SSW,205,5.0,14.0,12,0.00,,,0.00,VWS V14.01,2013-06-24 16:56:00,
2013-06-24 10:01:00,90.3,30.9,29.71,South,188,5.0,15.0,12,0.00,,,0.00,VWS V14.01,2013-06-24 17:01:00,
2013-06-24 10:06:00,90.3,30.9,29.71,South,176,12.0,15.0,12,0.00,,,0.00,VWS V14.01,2013-06-24 17:06:00,
2013-06-24 10:11:00,90.8,31.2,29.72,SSW,195,10.0,15.0,12,0.00,,,0.00,VWS V14.01,2013-06-24 17:11:00,
2013-06-24 10:16:00,90.6,31.1,29.72,SSW,195,5.0,6.0,12,0.00,,,0.00,VWS V14.01,2013-06-24 17:16:00,
2013-06-24 10:21:00,92.0,32.2,29.72,South,179,6.0,9.0,12,0.00,,,0.00,VWS V14.01,2013-06-24 17:21:00,
2013-06-24 10:26:00,92.1,30.1,29.71,SW,234,5.0,8.0,11,0.00,,,0.00,VWS V14.01,2013-06-24 17:26:00,
2013-06-24 10:41:00,92.7,30.6,29.71,SSW,200,5.0,12.0,11,0.00,,,0.00,VWS V14.01,2013-06-24 17:41:00,
2013-06-24 10:46:00,92.5,30.4,29.71,SSE,164,5.0,12.0,11,0.00,,,0.00,VWS V14.01,2013-06-24 17:46:00,
2013-06-24 10:52:00,93.7,29.0,29.71,SSE,159,9.0,17.0,10,0.00,,,0.00,VWS V14.01,2013-06-24 17:52:00,
2013-06-24 10:57:00,93.5,31.2,29.71,South,184,15.0,15.0,11,0.00,,,0.00,VWS V14.01,2013-06-24 17:57:00,
2013-06-24 11:02:00,93.8,29.1,29.71,South,173,6.0,11.0,10,0.00,,,0.00,VWS V14.01,2013-06-24 18:02:00,
2013-06-24 11:07:00,93.8,31.4,29.70,SSW,205,5.0,10.0,11,0.00,,,0.00,VWS V14.01,2013-06-24 18:07:00,
2013-06-24 11:12:00,94.6,29.7,29.71,SW,229,9.0,11.0,10,0.00,,,0.00,VWS V14.01,2013-06-24 18:12:00,
2013-06-24 11:17:00,94.3,29.4,29.71,SW,217,4.0,14.0,10,0.00,,,0.00,VWS V14.01,2013-06-24 18:17:00,
2013-06-24 11:22:00,95.5,27.8,29.70,SW,218,5.0,9.0,9,0.00,,,0.00,VWS V14.01,2013-06-24 18:22:00,
2013-06-24 11:27:00,95.0,27.4,29.70,South,176,10.0,12.0,9,0.00,,,0.00,VWS V14.01,2013-06-24 18:27:00,
2013-06-24 11:32:00,95.8,28.0,29.70,SSW,198,7.0,14.0,9,0.00,,,0.00,VWS V14.01,2013-06-24 18:32:00,
2013-06-24 11:37:00,96.3,22.3,29.69,SW,223,12.0,13.0,7,0.00,,,0.00,VWS V14.01,2013-06-24 18:37:00,
2013-06-24 11:42:00,96.3,18.7,29.70,SSE,168,8.0,14.0,6,0.00,,,0.00,VWS V14.01,2013-06-24 18:42:00,
2013-06-24 11:47:00,96.0,22.1,29.69,SW,232,11.0,14.0,7,0.00,,,0.00,VWS V14.01,2013-06-24 18:47:00,
2013-06-24 11:52:00,96.6,22.5,29.69,SW,215,14.0,20.0,7,0.00,,,0.00,VWS V14.01,2013-06-24 18:52:00,
2013-06-24 12:01:00,96.2,25.4,29.69,South,169,16.0,19.0,8,0.00,,,0.00,VWS V14.01,2013-06-24 19:01:00,
2013-06-24 12:07:00,96.2,22.3,29.69,SSE,164,8.0,17.0,7,0.00,,,0.00,VWS V14.01,2013-06-24 19:07:00,
2013-06-24 12:12:00,96.3,22.3,29.69,SW,219,10.0,12.0,7,0.00,,,0.00,VWS V14.01,2013-06-24 19:12:00,
2013-06-24 12:17:00,97.4,19.5,29.69,SSE,147,7.0,17.0,6,0.00,,,0.00,VWS V14.01,2013-06-24 19:17:00,
2013-06-24 12:22:00,97.4,15.3,29.69,SSW,209,6.0,19.0,5,0.00,,,0.00,VWS V14.01,2013-06-24 19:22:00,
2013-06-24 12:27:00,96.8,14.9,29.69,SSW,205,11.0,18.0,5,0.00,,,0.00,VWS V14.01,2013-06-24 19:27:00,
2013-06-24 12:32:00,97.3,15.2,29.69,SSE,164,15.0,18.0,5,0.00,,,0.00,VWS V14.01,2013-06-24 19:32:00,
2013-06-24 12:37:00,97.0,19.2,29.69,SW,216,8.0,11.0,6,0.00,,,0.00,VWS V14.01,2013-06-24 19:37:00,
2013-06-24 12:46:00,98.4,20.2,29.69,SSW,210,12.0,21.0,6,0.00,,,0.00,VWS V14.01,2013-06-24 19:46:00,
2013-06-24 12:51:00,98.3,15.9,29.68,SW,219,11.0,19.0,5,0.00,,,0.00,VWS V14.01,2013-06-24 19:51:00,
2013-06-24 12:57:00,98.0,15.7,29.68,SW,219,9.0,17.0,5,0.00,,,0.00,VWS V14.01,2013-06-24 19:57:00,
2013-06-24 13:02:00,98.3,15.9,29.68,SSW,209,5.0,18.0,5,0.00,,,0.00,VWS V14.01,2013-06-24 20:02:00,
2013-06-24 13:07:00,98.2,20.1,29.67,SW,215,11.0,11.0,6,0.00,,,0.00,VWS V14.01,2013-06-24 20:07:00,
2013-06-24 13:12:00,98.1,20.0,29.68,SW,228,11.0,18.0,6,0.00,,,0.00,VWS V14.01,2013-06-24 20:12:00,
2013-06-24 13:17:00,98.6,16.1,29.67,SW,219,17.0,17.0,5,0.00,,,0.00,VWS V14.01,2013-06-24 20:17:00,
2013-06-24 13:22:00,98.4,20.2,29.67,SW,220,9.0,15.0,6,0.00,,,0.00,VWS V14.01,2013-06-24 20:22:00,
2013-06-24 13:28:00,98.5,16.0,29.67,SSW,197,12.0,19.0,5,0.00,,,0.00,VWS V14.01,2013-06-24 20:28:00,
2013-06-24 13:33:00,98.6,20.4,29.67,SW,218,8.0,19.0,6,0.00,,,0.00,VWS V14.01,2013-06-24 20:33:00,
2013-06-24 13:38:00,98.0,19.9,29.67,SW,216,12.0,20.0,6,0.00,,,0.00,VWS V14.01,2013-06-24 20:38:00,
2013-06-24 13:43:00,98.5,20.3,29.67,SSW,196,13.0,15.0,6,0.00,,,0.00,VWS V14.01,2013-06-24 20:43:00,
2013-06-24 13:51:00,98.2,23.7,29.67,SW,230,11.0,14.0,7,0.00,,,0.00,VWS V14.01,2013-06-24 20:51:00,
2013-06-24 13:56:00,99.0,24.3,29.67,WSW,242,4.0,16.0,7,0.00,,,0.00,VWS V14.01,2013-06-24 20:56:00,
2013-06-24 14:01:00,98.6,20.4,29.67,South,182,7.0,19.0,6,0.00,,,0.00,VWS V14.01,2013-06-24 21:01:00,
2013-06-24 14:06:00,99.0,20.6,29.66,South,181,11.0,21.0,6,0.00,,,0.00,VWS V14.01,2013-06-24 21:06:00,
2013-06-24 14:11:00,98.5,20.3,29.67,SSW,212,8.0,18.0,6,0.00,,,0.00,VWS V14.01,2013-06-24 21:11:00,
2013-06-24 14:16:00,98.9,20.6,29.66,SSW,204,2.0,12.0,6,0.00,,,0.00,VWS V14.01,2013-06-24 21:16:00,
2013-06-24 14:23:00,99.9,21.3,29.66,SW,231,7.0,16.0,6,0.00,,,0.00,VWS V14.01,2013-06-24 21:23:00,
2013-06-24 14:28:00,99.3,20.9,29.66,SW,220,8.0,19.0,6,0.00,,,0.00,VWS V14.01,2013-06-24 21:28:00,
2013-06-24 14:33:00,98.7,20.4,29.66,South,184,7.0,14.0,6,0.00,,,0.00,VWS V14.01,2013-06-24 21:33:00,
2013-06-24 14:43:00,99.8,11.9,29.65,SSW,193,6.0,15.0,4,0.00,,,0.00,VWS V14.01,2013-06-24 21:43:00,
2013-06-24 14:48:00,99.3,16.6,29.65,SW,223,4.0,13.0,5,0.00,,,0.00,VWS V14.01,2013-06-24 21:48:00,
2013-06-24 14:53:00,99.8,17.0,29.65,SE,138,11.0,13.0,5,0.00,,,0.00,VWS V14.01,2013-06-24 21:53:00,
2013-06-24 14:58:00,99.7,11.8,29.65,SW,217,10.0,18.0,4,0.00,,,0.00,VWS V14.01,2013-06-24 21:58:00,
2013-06-24 15:03:00,99.4,16.7,29.65,WNW,291,5.0,12.0,5,0.00,,,0.00,VWS V14.01,2013-06-24 22:03:00,
2013-06-24 15:08:00,99.5,16.7,29.65,SW,216,7.0,15.0,5,0.00,,,0.00,VWS V14.01,2013-06-24 22:08:00,
2013-06-24 15:13:00,99.3,16.6,29.65,West,274,4.0,13.0,5,0.00,,,0.00,VWS V14.01,2013-06-24 22:13:00,
2013-06-24 15:18:00,98.8,16.2,29.64,WNW,301,9.0,9.0,5,0.00,,,0.00,VWS V14.01,2013-06-24 22:18:00,
2013-06-24 15:23:00,98.6,20.4,29.64,SSW,213,5.0,7.0,6,0.00,,,0.00,VWS V14.01,2013-06-24 22:23:00,
2013-06-24 15:28:00,99.6,16.8,29.64,SW,220,5.0,16.0,5,0.00,,,0.00,VWS V14.01,2013-06-24 22:28:00,
2013-06-24 15:33:00,98.9,16.3,29.64,WSW,240,7.0,15.0,5,0.00,,,0.00,VWS V14.01,2013-06-24 22:33:00,
2013-06-24 15:38:00,98.5,16.0,29.64,SW,218,5.0,12.0,5,0.00,,,0.00,VWS V14.01,2013-06-24 22:38:00,
2013-06-24 15:46:00,98.6,20.4,29.64,SW,218,6.0,17.0,6,0.00,,,0.00,VWS V14.01,2013-06-24 22:46:00,
2013-06-24 15:51:00,99.1,20.7,29.64,West,272,6.0,11.0,6,0.00,,,0.00,VWS V14.01,2013-06-24 22:51:00,
2013-06-24 15:56:00,99.0,20.6,29.64,SW,215,6.0,13.0,6,0.00,,,0.00,VWS V14.01,2013-06-24 22:56:00,
2013-06-24 16:01:00,98.6,20.4,29.64,SW,223,10.0,19.0,6,0.00,,,0.00,VWS V14.01,2013-06-24 23:01:00,
2013-06-24 16:06:00,98.7,20.4,29.63,WNW,290,4.0,13.0,6,0.00,,,0.00,VWS V14.01,2013-06-24 23:06:00,
2013-06-24 16:14:00,98.8,16.2,29.63,SSW,207,5.0,15.0,5,0.00,,,0.00,VWS V14.01,2013-06-24 23:14:00,
2013-06-24 16:19:00,98.5,16.0,29.63,West,279,5.0,12.0,5,0.00,,,0.00,VWS V14.01,2013-06-24 23:19:00,
2013-06-24 16:24:00,98.0,15.7,29.63,WSW,251,6.0,15.0,5,0.00,,,0.00,VWS V14.01,2013-06-24 23:24:00,
2013-06-24 16:29:00,98.0,15.7,29.63,WNW,286,6.0,10.0,5,0.00,,,0.00,VWS V14.01,2013-06-24 23:29:00,
2013-06-24 16:34:00,97.6,15.4,29.63,SSW,202,6.0,13.0,5,0.00,,,0.00,VWS V14.01,2013-06-24 23:34:00,
2013-06-24 16:39:00,97.9,15.6,29.63,NW,310,0.0,10.0,5,0.00,,,0.00,VWS V14.01,2013-06-24 23:39:00,
2013-06-24 16:44:00,98.3,15.9,29.63,SW,219,8.0,15.0,5,0.00,,,0.00,VWS V14.01,2013-06-24 23:44:00,
2013-06-24 16:51:00,98.0,15.7,29.63,West,275,11.0,16.0,5,0.00,,,0.00,VWS V14.01,2013-06-24 23:51:00,
2013-06-24 16:56:00,97.8,15.6,29.63,SW,236,10.0,13.0,5,0.00,,,0.00,VWS V14.01,2013-06-24 23:56:00,
2013-06-24 17:04:00,97.2,15.1,29.63,West,264,6.0,14.0,5,0.00,,,0.00,VWS V14.01,2013-06-25 00:04:00,
2013-06-24 17:09:00,97.4,15.3,29.62,SSW,207,6.0,9.0,5,0.00,,,0.00,VWS V14.01,2013-06-25 00:09:00,
2013-06-24 17:14:00,97.2,15.1,29.63,WSW,258,6.0,14.0,5,0.00,,,0.00,VWS V14.01,2013-06-25 00:14:00,
2013-06-24 17:19:00,97.1,15.1,29.63,WNW,286,7.0,12.0,5,0.00,,,0.00,VWS V14.01,2013-06-25 00:19:00,
2013-06-24 17:24:00,96.6,14.7,29.63,WSW,240,6.0,13.0,5,0.00,,,0.00,VWS V14.01,2013-06-25 00:24:00,
2013-06-24 17:29:00,96.5,14.6,29.63,WSW,257,6.0,15.0,5,0.00,,,0.00,VWS V14.01,2013-06-25 00:29:00,
2013-06-24 17:34:00,95.8,14.2,29.63,West,275,4.0,11.0,5,0.00,,,0.00,VWS V14.01,2013-06-25 00:34:00,
2013-06-24 17:39:00,95.1,13.7,29.63,West,269,6.0,13.0,5,0.00,,,0.00,VWS V14.01,2013-06-25 00:39:00,
2013-06-24 17:44:00,94.7,13.4,29.63,WSW,257,4.0,12.0,5,0.00,,,0.00,VWS V14.01,2013-06-25 00:44:00,
2013-06-24 17:51:00,94.5,13.2,29.63,WNW,302,6.0,10.0,5,0.00,,,0.00,VWS V14.01,2013-06-25 00:51:00,
2013-06-24 17:59:00,94.7,13.4,29.63,SW,215,7.0,11.0,5,0.00,,,0.00,VWS V14.01,2013-06-25 00:59:00,
2013-06-24 18:04:00,94.3,13.1,29.63,NW,317,5.0,11.0,5,0.00,,,0.00,VWS V14.01,2013-06-25 01:04:00,
2013-06-24 18:09:00,93.6,16.8,29.63,SW,221,3.0,9.0,6,0.00,,,0.00,VWS V14.01,2013-06-25 01:09:00,
2013-06-24 18:14:00,93.8,16.9,29.63,WSW,246,4.0,9.0,6,0.00,,,0.00,VWS V14.01,2013-06-25 01:14:00,
2013-06-24 18:19:00,93.9,17.0,29.64,WNW,288,6.0,11.0,6,0.00,,,0.00,VWS V14.01,2013-06-25 01:19:00,
2013-06-24 18:24:00,93.6,16.8,29.64,West,272,5.0,9.0,6,0.00,,,0.00,VWS V14.01,2013-06-25 01:24:00,
2013-06-24 18:29:00,93.3,20.1,29.64,WSW,246,7.0,10.0,7,0.00,,,0.00,VWS V14.01,2013-06-25 01:29:00,
2013-06-24 18:34:00,92.9,19.9,29.64,WSW,242,2.0,8.0,7,0.00,,,0.00,VWS V14.01,2013-06-25 01:34:00,
2013-06-24 18:39:00,92.6,19.6,29.64,WSW,241,3.0,11.0,7,0.00,,,0.00,VWS V14.01,2013-06-25 01:39:00,
2013-06-24 18:46:00,92.1,19.3,29.64,West,263,0.0,13.0,7,0.00,,,0.00,VWS V14.01,2013-06-25 01:46:00,
2013-06-24 18:51:00,92.0,19.2,29.64,SSW,207,5.0,12.0,7,0.00,,,0.00,VWS V14.01,2013-06-25 01:51:00,
2013-06-24 19:01:00,91.6,18.9,29.65,West,271,5.0,11.0,7,0.00,,,0.00,VWS V14.01,2013-06-25 02:01:00,
2013-06-24 19:06:00,91.4,18.8,29.65,SSW,206,5.0,8.0,7,0.00,,,0.00,VWS V14.01,2013-06-25 02:06:00,
2013-06-24 19:11:00,91.1,18.6,29.65,West,275,1.0,9.0,7,0.00,,,0.00,VWS V14.01,2013-06-25 02:11:00,
2013-06-24 19:16:00,90.7,21.4,29.65,SW,232,5.0,8.0,8,0.00,,,0.00,VWS V14.01,2013-06-25 02:16:00,
2013-06-24 19:21:00,90.3,21.1,29.65,SSW,199,4.0,9.0,8,0.00,,,0.00,VWS V14.01,2013-06-25 02:21:00,
2013-06-24 19:30:00,89.7,20.6,29.65,SSW,210,5.0,10.0,8,0.00,,,0.00,VWS V14.01,2013-06-25 02:30:00,
2013-06-24 19:35:00,89.3,20.4,29.66,SW,220,1.0,10.0,8,0.00,,,0.00,VWS V14.01,2013-06-25 02:35:00,
2013-06-24 19:40:00,89.0,22.9,29.66,West,259,0.0,7.0,9,0.00,,,0.00,VWS V14.01,2013-06-25 02:40:00,
2013-06-24 19:45:00,88.6,22.6,29.66,SW,225,3.0,5.0,9,0.00,,,0.00,VWS V14.01,2013-06-25 02:45:00,
2013-06-24 19:50:00,88.2,24.8,29.66,West,281,1.0,7.0,10,0.00,,,0.00,VWS V14.01,2013-06-25 02:50:00,
2013-06-24 19:55:00,88.0,27.0,29.66,West,272,3.0,8.0,11,0.00,,,0.00,VWS V14.01,2013-06-25 02:55:00,
2013-06-24 20:00:00,87.8,30.9,29.66,WNW,295,2.0,8.0,13,0.00,,,0.00,VWS V14.01,2013-06-25 03:00:00,
2013-06-24 20:06:00,87.7,32.7,29.66,SW,224,6.0,7.0,14,0.00,,,0.00,VWS V14.01,2013-06-25 03:06:00,
2013-06-24 20:15:00,87.2,34.0,29.67,SSW,204,1.0,7.0,15,0.00,,,0.00,VWS V14.01,2013-06-25 03:15:00,
2013-06-24 20:25:00,86.8,35.3,29.67,SW,222,0.0,7.0,16,0.00,,,0.00,VWS V14.01,2013-06-25 03:25:00,
2013-06-24 20:31:00,86.5,35.0,29.67,WSW,256,1.0,5.0,16,0.00,,,0.00,VWS V14.01,2013-06-25 03:31:00,
2013-06-24 20:36:00,86.4,35.0,29.67,West,263,4.0,9.0,16,0.00,,,0.00,VWS V14.01,2013-06-25 03:36:00,
2013-06-24 20:41:00,86.2,36.3,29.68,WSW,243,3.0,5.0,17,0.00,,,0.00,VWS V14.01,2013-06-25 03:41:00,
2013-06-24 20:46:00,86.1,34.7,29.68,SW,221,2.0,9.0,16,0.00,,,0.00,VWS V14.01,2013-06-25 03:46:00,
2013-06-24 20:56:00,85.5,35.8,29.68,WSW,250,1.0,6.0,17,0.00,,,0.00,VWS V14.01,2013-06-25 03:56:00,
2013-06-24 21:01:00,84.8,35.2,29.69,SW,217,5.0,6.0,17,0.00,,,0.00,VWS V14.01,2013-06-25 04:01:00,
2013-06-24 21:06:00,84.5,35.0,29.69,SW,215,2.0,7.0,17,0.00,,,0.00,VWS V14.01,2013-06-25 04:06:00,
2013-06-24 21:11:00,84.2,34.7,29.69,SW,215,2.0,7.0,17,0.00,,,0.00,VWS V14.01,2013-06-25 04:11:00,
2013-06-24 21:21:00,83.6,35.7,29.70,SW,230,1.0,5.0,18,0.00,,,0.00,VWS V14.01,2013-06-25 04:21:00,
2013-06-24 21:26:00,83.3,35.4,29.70,SSW,209,0.0,5.0,18,0.00,,,0.00,VWS V14.01,2013-06-25 04:26:00,
2013-06-24 21:31:00,82.8,35.0,29.70,SSW,209,0.0,3.0,18,0.00,,,0.00,VWS V14.01,2013-06-25 04:31:00,
2013-06-24 21:36:00,82.3,34.6,29.71,SSW,195,1.0,2.0,18,0.00,,,0.00,VWS V14.01,2013-06-25 04:36:00,
2013-06-24 21:41:00,82.1,35.8,29.71,SSW,192,0.0,2.0,19,0.00,,,0.00,VWS V14.01,2013-06-25 04:41:00,
2013-06-24 21:51:00,81.6,35.4,29.72,South,175,0.0,2.0,19,0.00,,,0.00,VWS V14.01,2013-06-25 04:51:00,
2013-06-24 21:56:00,81.5,35.3,29.72,South,175,0.0,1.0,19,0.00,,,0.00,VWS V14.01,2013-06-25 04:56:00,
2013-06-24 22:01:00,81.2,35.1,29.72,South,175,0.0,4.0,19,0.00,,,0.00,VWS V14.01,2013-06-25 05:01:00,
2013-06-24 22:06:00,81.1,35.0,29.72,South,175,1.0,2.0,19,0.00,,,0.00,VWS V14.01,2013-06-25 05:06:00,
2013-06-24 22:11:00,80.9,34.8,29.72,South,175,0.0,1.0,19,0.00,,,0.00,VWS V14.01,2013-06-25 05:11:00,
2013-06-24 22:16:00,80.5,34.5,29.72,South,175,0.0,2.0,19,0.00,,,0.00,VWS V14.01,2013-06-25 05:16:00,
2013-06-24 22:21:00,80.7,34.7,29.72,South,175,1.0,2.0,19,0.00,,,0.00,VWS V14.01,2013-06-25 05:21:00,
2013-06-24 22:26:00,80.8,34.7,29.73,South,171,1.0,5.0,19,0.00,,,0.00,VWS V14.01,2013-06-25 05:26:00,
2013-06-24 22:31:00,80.7,34.7,29.73,South,171,1.0,4.0,19,0.00,,,0.00,VWS V14.01,2013-06-25 05:31:00,
2013-06-24 22:36:00,80.6,34.6,29.73,South,171,0.0,4.0,19,0.00,,,0.00,VWS V14.01,2013-06-25 05:36:00,
2013-06-24 22:41:00,80.5,34.5,29.73,South,171,0.0,2.0,19,0.00,,,0.00,VWS V14.01,2013-06-25 05:41:00,
2013-06-24 22:46:00,80.4,34.4,29.73,South,171,0.0,2.0,19,0.00,,,0.00,VWS V14.01,2013-06-25 05:46:00,
2013-06-24 22:51:00,80.4,34.4,29.73,South,171,0.0,2.0,19,0.00,,,0.00,VWS V14.01,2013-06-25 05:51:00,
2013-06-24 22:56:00,80.3,34.3,29.73,South,171,0.0,2.0,19,0.00,,,0.00,VWS V14.01,2013-06-25 05:56:00,
2013-06-24 23:01:00,80.1,34.2,29.73,South,171,0.0,1.0,19,0.00,,,0.00,VWS V14.01,2013-06-25 06:01:00,
2013-06-24 23:06:00,79.8,33.9,29.73,South,171,0.0,1.0,19,0.00,,,0.00,VWS V14.01,2013-06-25 06:06:00,
2013-06-24 23:11:00,78.8,34.4,29.73,South,171,0.0,0.0,20,0.00,,,0.00,VWS V14.01,2013-06-25 06:11:00,
2013-06-24 23:16:00,78.7,34.3,29.73,South,171,0.0,0.0,20,0.00,,,0.00,VWS V14.01,2013-06-25 06:16:00,
2013-06-24 23:21:00,78.2,33.9,29.74,South,171,0.0,0.0,20,0.00,,,0.00,VWS V14.01,2013-06-25 06:21:00,
2013-06-24 23:26:00,77.6,34.6,29.74,South,171,0.0,0.0,21,0.00,,,0.00,VWS V14.01,2013-06-25 06:26:00,
2013-06-24 23:31:00,76.4,34.8,29.74,South,171,0.0,0.0,22,0.00,,,0.00,VWS V14.01,2013-06-25 06:31:00,
2013-06-24 23:36:00,76.3,34.7,29.74,South,171,0.0,0.0,22,0.00,,,0.00,VWS V14.01,2013-06-25 06:36:00,
2013-06-24 23:41:00,76.0,34.5,29.74,South,171,0.0,0.0,22,0.00,,,0.00,VWS V14.01,2013-06-25 06:41:00,
2013-06-24 23:46:00,75.9,34.4,29.74,South,171,0.0,0.0,22,0.00,,,0.00,VWS V14.01,2013-06-25 06:46:00,
2013-06-24 23:51:00,75.8,34.3,29.73,South,171,0.0,0.0,22,0.00,,,0.00,VWS V14.01,2013-06-25 06:51:00,
2013-06-24 23:56:00,75.2,33.8,29.74,South,171,0.0,0.0,22,0.00,,,0.00,VWS V14.01,2013-06-25 06:56:00,